Loreto, Mexico

7:48 AM MDT on August 27, 2016 (GMT -0600)
Loreto International

Weather History for MMLT - October, 2011

Change the Weather History Date:

Sunday, October 23, 2011

  Actual Average Record
Temperature  
Mean Temperature 84 °F -  
Max Temperature 91 °F 84 °F 93 °F (1999)
Min Temperature 77 °F 74 °F 60 °F (2013)
Cooling Degree Days 19    
Growing Degree Days 34 (Base 50)    
Moisture  
Dew Point 73 °F    
Average Humidity 66    
Maximum Humidity 94    
Minimum Humidity 39    
Precipitation  
Precipitation 0.00 in - - ()
Sea Level Pressure  
Sea Level Pressure 29.87 in    
Wind  
Wind Speed 5 mph ()    
Max Wind Speed 12 mph    
Max Gust Speed -    
Visibility 9.7 miles    
Events      
Averages and records for this station are not official NWS values.
T = Trace of Precipitation, MM = Missing Value Source: Averaged Metar Reports

Daily Weather History Graph

Daily Weather History Graph

Search for Another Location

Airport or City:

Trip Planner

Search our weather history database for the weather conditions in past years. The results will help you decide how hot, cold, wet, or windy it might be!

Date:

Astronomy

Oct. 23, 2011 Rise Set
Actual Time 7:28 AM MDT 6:50 PM MDT
Civil Twilight 7:05 AM MDT 7:13 PM MDT
Nautical Twilight 6:38 AM MDT 7:40 PM MDT
Astronomical Twilight 6:11 AM MDT 8:07 PM MDT
Moon 3:59 AM MDT (10/23) 4:28 PM MDT (10/23)
Length of Visible Light 12h 08m
Length of Day
11h 22m
Waning Crescent, 14% of the Moon is Illuminated
Oct 23
Waning Crescent
Oct 26
New
Nov 2
First Quarter
Nov 10
Full
Nov 18
Last Quarter

Hourly Weather History & Observations

Time (MDT) Temp. Heat Index Dew Point Humidity Pressure Visibility Wind Dir Wind Speed Gust Speed Precip Events Conditions
2:45 AM 80 °F - 71 °F 66% 29.90 in 12 mi North 2.2 mph - -   Partly Cloudy
5:30 AM 80 °F - 72 °F 70% 29.86 in 12 mi NNW 2.2 mph - -  
7:08 AM 78.8 °F - 77.0 °F 94% 29.85 in 8.0 mi WSW 5.8 mph - N/A   Clear
7:51 AM 78.8 °F - 77.0 °F 94% 29.85 in 8.0 mi WSW 5.8 mph - N/A   Clear
8:30 AM 79 °F - 71 °F 72% 29.87 in 12 mi North 2.2 mph - -  
8:43 AM 80.6 °F 85.4 °F 73.4 °F 79% 29.87 in 8.0 mi WSW 5.8 mph - N/A   Clear
9:46 AM 84.2 °F 89.6 °F 71.6 °F 66% 29.90 in 8.0 mi NNW 8.1 mph - N/A   Clear
10:42 AM 84.2 °F 89.6 °F 71.6 °F 66% 29.91 in 8.0 mi North 11.5 mph - N/A   Clear
11:40 AM 89 °F - 73 °F 51% 29.91 in 12 mi NE 4.5 mph - -  
11:42 AM 84.2 °F 89.6 °F 71.6 °F 66% 29.91 in 8.0 mi North 11.5 mph - N/A   Clear
12:43 PM 86.0 °F 95.1 °F 75.2 °F 70% 29.90 in 8.0 mi North 11.5 mph - N/A   Clear
1:51 PM 86.0 °F 95.1 °F 75.2 °F 70% 29.86 in 8.0 mi North 11.5 mph - N/A   Clear
2:40 PM 91 °F - 69 °F 39% 29.84 in 12 mi ENE 6.7 mph - -  
4:43 PM 87.8 °F 95.6 °F 73.4 °F 62% 29.82 in 8.0 mi North 11.5 mph - N/A   Clear
5:50 PM 87 °F - 70 °F 47% 29.85 in 12 mi NE 6.7 mph - -   Scattered Clouds
6:00 PM 87.8 °F 95.6 °F 73.4 °F 62% 29.82 in 8.0 mi North 11.5 mph - N/A   Clear
6:46 PM 86.0 °F 96.9 °F 77.0 °F 74% 29.84 in 8.0 mi North 6.9 mph - N/A   Clear
8:30 PM 84 °F - 71 °F 56% 29.90 in 12 mi Calm Calm - -  
11:45 PM 81 °F - 67 °F 55% 29.91 in 12 mi Calm Calm - -